[[{"header":{"parameterUnit":"m.s-1","parameterCategory":1,"la1":30.2991,"la2":30.254,"lo1":-89.0895,"lo2":-89.0444,"dy":0.0017,"dx":0.0017,"nx":28,"ny":28,"refTime":"2025-03-05T03:00:00:Z","depth":0,"parameterNumber":2,"parameterNumberName":"U-component_of_WINDS"},"data":[0,0,0,0,0,0,0,0,0,0,0,0,0,0,0,0,0,0,0,0,0,0,0,0,0,0,0,0,0,0,0,0,0,0,0,0,0,0,0,0,0,0,0,0,0,0,0,0,0,0,0,0,0,0,0,0,0,0,8.4275,8.4277,0,8.4466,8.4468,8.447,8.4395,8.439,8.4386,8.4382,8.4581,8.459,8.46,0,0,0,0,0,0,0,0,0,0,0,0,0,8.3849,8.3857,8.4274,8.4277,8.4279,8.4466,8.4468,8.4471,8.4396,8.439,8.4385,8.438,8.4578,8.4589,8.46,0,0,0,0,0,0,0,0,0,0,0,0,0,8.4036,8.386,8.4274,8.4264,8.4265,8.4465,8.4468,8.4472,8.4397,8.439,8.4383,8.4377,8.4574,8.4588,8.4602,8.4824,0,0,8.4646,8.4652,0,0,0,0,0,0,0,0,8.4026,8.4052,8.4263,8.4265,8.4267,8.4399,8.4391,8.459,8.4398,8.4347,8.4381,8.4374,8.4526,8.4544,8.4595,8.4834,8.4842,8.4647,8.4655,8.4662,8.4666,0,0,0,0,0,0,0,8.4013,8.4043,8.435,8.4266,8.4268,8.4252,8.4271,8.4429,8.4472,8.4351,8.4346,8.4369,8.4526,8.4581,8.4599,8.4845,8.4646,8.4659,8.4668,8.4673,8.528,8.5287,0,0,0,0,0,0,8.3999,8.4033,8.4344,8.4356,8.4127,8.4265,8.4286,8.4364,8.447,8.448,8.4375,8.4365,8.456,8.4582,8.4606,8.4875,8.4661,8.4675,8.4683,8.5272,8.5281,8.529,0,0,0,0,0,0,8.399,8.4027,8.4336,8.4193,8.4231,8.4279,8.4367,8.4371,8.4426,8.4488,8.4496,8.4423,8.4556,8.4586,8.4771,8.4881,8.4681,8.4694,8.5263,8.5275,8.5286,8.5415,0,0,0,0,0,0,8.3978,8.4025,8.4108,8.4196,8.4239,8.4498,8.4373,8.438,8.445,8.444,8.4535,8.4545,8.4553,8.475,8.4785,8.4897,8.4705,8.5254,8.5269,8.5282,8.5401,8.5429,8.5454,0,0,0,0,0,8.3963,8.4137,8.4113,8.4151,8.4344,8.4504,8.4529,8.4534,8.4459,8.4545,8.4586,8.4542,8.4863,8.477,8.4809,8.4926,8.5247,8.5264,8.5281,8.5389,8.5424,8.5453,0,0,0,0,0,0,8.4061,8.4148,8.4122,8.4329,8.441,8.4491,8.4598,8.4569,8.4673,8.4659,8.4661,8.4684,8.4876,8.4919,8.4814,8.5149,8.5044,8.507,8.5113,8.5147,8.5172,8.5159,8.4717,0,0,0,0,0,8.4107,8.4228,8.4297,8.4474,8.4515,8.455,8.462,8.4617,8.4701,8.4735,8.4788,8.4873,8.4993,8.5072,8.5186,8.5407,8.5429,8.5507,8.5534,8.5555,8.5577,8.5701,8.5738,8.5346,8.5346,8.5345,0,0,8.4203,8.4265,8.4341,8.4495,8.4557,8.4684,8.4579,8.4717,8.4813,8.4756,8.4935,8.4977,8.5072,8.5277,8.537,8.532,8.5691,8.5577,8.5593,8.5604,8.5722,8.576,8.5793,8.5357,8.5355,8.5353,0,0,8.4443,8.4501,8.4655,8.472,8.4815,8.4838,8.4875,8.4961,8.4988,8.5167,8.5128,8.5242,8.5448,8.5518,8.558,8.585,8.5815,8.5887,8.6025,8.6145,8.6176,8.6203,8.6302,8.6337,8.5909,8.5909,8.591,0,8.455,8.4738,8.4738,8.4881,8.4951,8.4905,8.5063,8.5126,8.5254,8.5305,8.5246,8.5506,8.5566,8.5788,8.5855,8.5906,8.5951,8.5876,8.6171,8.6199,8.6224,8.6319,8.6356,8.5918,8.5917,8.5916,8.5915,0,8.4867,8.4999,8.5112,8.5237,8.532,8.547,8.5494,8.5579,8.5569,8.5599,8.5784,8.5855,8.5983,8.6036,8.6027,8.6259,8.6225,8.6169,8.6064,8.627,8.6359,8.6395,8.593,8.5927,8.5924,8.5922,0,0,8.5174,8.5298,8.534,8.5397,8.55,8.5603,8.5752,8.5877,8.5951,8.6041,8.6168,8.6345,8.6295,8.6366,8.6365,8.6471,8.6684,8.6402,8.6405,8.6454,8.6946,8.6989,8.7031,8.666,8.6667,8.6673,8.6939,0,8.5423,8.5683,8.5689,8.5928,8.6051,8.6011,8.6141,8.6219,8.6252,8.6362,8.6398,8.6525,8.6447,8.6491,8.6593,8.6636,8.6783,8.6616,8.6781,8.6787,8.676,8.7077,8.7122,8.737,8.6974,8.6979,8.6984,0,8.5749,8.585,8.6102,8.6189,8.6241,8.6358,8.6475,8.6581,8.667,8.6686,8.6767,8.6752,8.6906,8.6796,8.701,8.6897,8.6965,8.6997,8.7006,8.7023,8.6899,8.7104,8.7448,8.7487,8.7038,8.7034,8.703,0,8.5951,8.615,8.6327,8.6377,8.6483,8.6566,8.6615,8.6697,8.6773,8.6876,8.6926,8.7046,8.7112,8.7206,8.7224,8.7142,8.7441,8.7331,8.7461,8.7461,8.7527,8.7523,8.7889,8.7568,8.7567,8.7566,8.7565,0,8.6231,8.6387,8.6419,8.6528,8.6703,8.6709,8.6882,8.6924,8.6999,8.7117,8.7089,8.7201,8.7217,8.7334,8.735,8.7527,8.7556,8.7576,8.7578,8.758,8.7578,8.7625,8.7609,8.7576,8.7574,8.7572,8.757,0,8.6486,8.6514,8.6704,8.6789,8.6814,8.694,8.7014,8.7119,8.7149,8.7299,8.7335,8.7382,8.7519,8.7546,8.7707,8.7717,8.7929,8.7913,8.7899,8.7898,8.8028,8.8016,8.8439,8.8496,8.8135,8.8138,8.8141,0,8.6663,8.6783,8.6881,8.6958,8.701,8.7134,8.7212,8.7223,8.7305,8.7418,8.7511,8.7644,8.7751,8.7971,8.8021,8.8145,8.8134,8.8273,8.8152,8.8151,8.8139,8.8133,8.8146,8.8297,8.8301,8.8304,8.8307,0,8.6976,8.6985,8.7097,8.7216,8.7309,8.7403,8.7492,8.7557,8.7581,8.7676,8.7814,8.7897,8.8063,8.8196,8.8321,8.8372,8.8346,8.8344,8.8382,8.8385,8.8373,8.8384,8.7965,8.8335,8.8332,8.833,8.8328,8.8327,8.72,8.7305,8.7392,8.7519,8.7587,8.7672,8.7776,8.7819,8.7934,8.8069,8.8069,8.8222,8.8311,8.8475,8.8535,8.8656,8.8612,8.8665,8.8679,8.8693,8.8706,8.8352,8.8678,8.8677,8.8677,8.8676,8.8675,0,8.7514,8.7568,8.7684,8.781,8.7911,8.7875,8.7973,8.806,8.8194,8.8279,8.8385,8.8547,8.8677,8.8738,8.8867,8.8952,8.8943,8.8986,8.8981,8.8994,8.8736,8.8692,8.8991,8.8991,8.8991,8.8991,8.8991,8.8991,8.7689,8.7866,8.7885,8.8097,8.815,8.8298,8.8358,8.8437,8.8505,8.8686,8.8793,8.8832,8.8908,8.9043,8.9162,8.9176,8.9226,8.9276,8.9285,8.9043,8.9012,8.8981,8.894,8.9286,8.9286,8.9533,8.9535,8.9537]},{"header":{"parameterUnit":"m.s-1","parameterCategory":1,"la1":30.2991,"la2":30.254,"lo1":-89.0895,"lo2":-89.0444,"dy":0.0017,"dx":0.0017,"nx":28,"ny":28,"refTime":"2025-03-05T03:00:00:Z","depth":0,"parameterNumber":3,"parameterNumberName":"V-component_of_WINDS"},"data":[0,0,0,0,0,0,0,0,0,0,0,0,0,0,0,0,0,0,0,0,0,0,0,0,0,0,0,0,0,0,0,0,0,0,0,0,0,0,0,0,0,0,0,0,0,0,0,0,0,0,0,0,0,0,0,0,0,0,-4.0607,-4.0608,0,-4.0699,-4.07,-4.0701,-4.0717,-4.0716,-4.0715,-4.0714,-4.0806,-4.0809,-4.0812,0,0,0,0,0,0,0,0,0,0,0,0,0,-4.0445,-4.0448,-4.0607,-4.0608,-4.0609,-4.0699,-4.07,-4.0701,-4.0717,-4.0716,-4.0715,-4.0714,-4.0805,-4.0809,-4.0812,0,0,0,0,0,0,0,0,0,0,0,0,0,-4.0524,-4.0449,-4.0607,-4.0628,-4.0631,-4.0698,-4.07,-4.0701,-4.0717,-4.0716,-4.0715,-4.0714,-4.0804,-4.0808,-4.0813,-4.0865,0,0,-4.0827,-4.0829,0,0,0,0,0,0,0,0,-4.0519,-4.053,-4.0624,-4.0627,-4.063,-4.0695,-4.0676,-4.0756,-4.0717,-4.0684,-4.0714,-4.0713,-4.077,-4.0777,-4.0797,-4.0869,-4.0873,-4.0828,-4.0831,-4.0833,-4.0834,0,0,0,0,0,0,0,-4.0514,-4.0526,-4.0643,-4.0625,-4.0629,-4.0633,-4.0643,-4.0691,-4.0732,-4.0687,-4.0688,-4.0699,-4.0771,-4.0792,-4.0799,-4.0875,-4.0828,-4.0832,-4.0835,-4.0837,-4.0995,-4.0996,0,0,0,0,0,0,-4.0505,-4.0521,-4.064,-4.0646,-4.0571,-4.0636,-4.0648,-4.0675,-4.0732,-4.0739,-4.07,-4.07,-4.0785,-4.0794,-4.0802,-4.0867,-4.0833,-4.0837,-4.084,-4.0994,-4.0995,-4.0997,0,0,0,0,0,0,-4.0501,-4.0515,-4.0637,-4.0584,-4.06,-4.0641,-4.0672,-4.0678,-4.0699,-4.0742,-4.0749,-4.0714,-4.0784,-4.0796,-4.085,-4.0871,-4.0839,-4.0843,-4.0992,-4.0994,-4.0996,-4.0997,0,0,0,0,0,0,-4.0496,-4.0514,-4.0534,-4.0584,-4.0603,-4.0683,-4.0673,-4.068,-4.0707,-4.0707,-4.0757,-4.0764,-4.0784,-4.0843,-4.0854,-4.0877,-4.0847,-4.099,-4.0993,-4.0995,-4.0996,-4.0999,-4.1002,0,0,0,0,0,-4.049,-4.053,-4.0535,-4.0549,-4.0629,-4.0684,-4.0694,-4.0718,-4.0709,-4.0729,-4.0757,-4.0762,-4.0867,-4.0848,-4.0861,-4.0885,-4.0989,-4.0992,-4.0995,-4.0994,-4.0999,-4.1002,0,0,0,0,0,0,-4.048,-4.0537,-4.0543,-4.06,-4.0637,-4.0686,-4.0713,-4.0721,-4.0761,-4.0759,-4.0786,-4.0797,-4.085,-4.0873,-4.0851,-4.0939,-4.0927,-4.0933,-4.0922,-4.0926,-4.093,-4.0922,-4.0851,0,0,0,0,0,-4.0485,-4.0525,-4.0573,-4.0618,-4.0637,-4.0672,-4.0697,-4.0712,-4.0751,-4.0766,-4.0798,-4.0835,-4.0876,-4.0903,-4.0943,-4.1,-4.1011,-4.1023,-4.1026,-4.1029,-4.1033,-4.1065,-4.1071,-4.1007,-4.1007,-4.1007,0,0,-4.0494,-4.053,-4.0554,-4.0617,-4.0648,-4.0689,-4.0685,-4.0728,-4.0758,-4.0772,-4.0825,-4.085,-4.0893,-4.0949,-4.0975,-4.097,-4.1054,-4.1033,-4.1035,-4.1038,-4.1069,-4.1075,-4.108,-4.1009,-4.1009,-4.1008,0,0,-4.0532,-4.0564,-4.0606,-4.0637,-4.0683,-4.0707,-4.0717,-4.0765,-4.0782,-4.0836,-4.0848,-4.0884,-4.0955,-4.0986,-4.101,-4.1062,-4.1068,-4.1074,-4.1091,-4.1122,-4.1127,-4.1132,-4.115,-4.1156,-4.1079,-4.1079,-4.1079,0,-4.0538,-4.06,-4.0626,-4.0669,-4.0697,-4.0713,-4.0755,-4.0784,-4.0841,-4.0859,-4.0854,-4.0943,-4.0973,-4.1036,-4.1049,-4.1069,-4.1081,-4.1068,-4.1124,-4.1129,-4.1134,-4.1151,-4.1158,-4.1079,-4.1079,-4.1079,-4.1079,0,-4.0605,-4.0648,-4.0676,-4.0732,-4.0763,-4.0806,-4.0838,-4.0866,-4.0879,-4.0902,-4.0957,-4.0995,-4.1043,-4.1059,-4.1072,-4.1125,-4.112,-4.1119,-4.1107,-4.114,-4.1157,-4.1164,-4.108,-4.108,-4.108,-4.1079,0,0,-4.0637,-4.0708,-4.0718,-4.0744,-4.0797,-4.0831,-4.0874,-4.0923,-4.0946,-4.0985,-4.1022,-4.1083,-4.1082,-4.1111,-4.1127,-4.1154,-4.1192,-4.115,-4.1151,-4.1156,-4.1253,-4.1252,-4.126,-4.1197,-4.1199,-4.12,-4.1249,0,-4.0681,-4.076,-4.0785,-4.085,-4.0891,-4.0907,-4.0945,-4.0982,-4.1006,-4.1043,-4.107,-4.1112,-4.1108,-4.1126,-4.1153,-4.1182,-4.1212,-4.1179,-4.1231,-4.1233,-4.1219,-4.1269,-4.1268,-4.1313,-4.1256,-4.1257,-4.1258,0,-4.0743,-4.0784,-4.0854,-4.0903,-4.092,-4.0954,-4.1001,-4.1037,-4.1079,-4.1094,-4.1127,-4.1141,-4.1187,-4.1174,-4.1238,-4.1214,-4.1238,-4.1255,-4.1257,-4.1262,-4.1246,-4.1274,-4.1328,-4.1334,-4.1268,-4.1267,-4.1267,0,-4.0759,-4.0832,-4.0883,-4.0905,-4.0963,-4.0987,-4.1012,-4.1053,-4.1081,-4.1122,-4.114,-4.1186,-4.121,-4.1245,-4.1271,-4.1259,-4.1333,-4.1322,-4.1346,-4.1346,-4.136,-4.1358,-4.1417,-4.1376,-4.1376,-4.1376,-4.1376,0,-4.0805,-4.0847,-4.0891,-4.0923,-4.097,-4.0999,-4.1045,-4.1071,-4.1108,-4.1145,-4.1162,-4.1196,-4.1229,-4.1267,-4.1289,-4.1338,-4.1349,-4.1363,-4.1367,-4.1361,-4.1359,-4.1375,-4.1372,-4.1378,-4.1378,-4.1377,-4.1377,0,-4.083,-4.0862,-4.0919,-4.097,-4.0984,-4.1017,-4.1061,-4.1092,-4.1117,-4.1163,-4.1176,-4.1215,-4.1261,-4.1292,-4.135,-4.1364,-4.1418,-4.1423,-4.1404,-4.1406,-4.1429,-4.1426,-4.1499,-4.151,-4.1463,-4.1463,-4.1464,0,-4.0857,-4.089,-4.0945,-4.0971,-4.0997,-4.1039,-4.1068,-4.1098,-4.1127,-4.1178,-4.1203,-4.125,-4.129,-4.1363,-4.1396,-4.1441,-4.1447,-4.1469,-4.1453,-4.1446,-4.1446,-4.1444,-4.1447,-4.1471,-4.1472,-4.1472,-4.1472,0,-4.0901,-4.0915,-4.0957,-4.1004,-4.1038,-4.1076,-4.1114,-4.1135,-4.1171,-4.1203,-4.1251,-4.1282,-4.1343,-4.1389,-4.1438,-4.1464,-4.1474,-4.1477,-4.1485,-4.1478,-4.1466,-4.1472,-4.141,-4.1475,-4.1475,-4.1475,-4.1474,-4.1474,-4.0928,-4.0958,-4.1002,-4.1047,-4.1079,-4.1115,-4.1147,-4.1177,-4.1217,-4.1269,-4.1285,-4.1335,-4.1377,-4.1443,-4.147,-4.1509,-4.1507,-4.1518,-4.1521,-4.1523,-4.1523,-4.1461,-4.1518,-4.1518,-4.1518,-4.1518,-4.1518,0,-4.0972,-4.1002,-4.1043,-4.1097,-4.1133,-4.1141,-4.1184,-4.1213,-4.1257,-4.1296,-4.1335,-4.139,-4.1436,-4.1474,-4.1521,-4.1545,-4.1551,-4.1556,-4.1554,-4.156,-4.1523,-4.1511,-4.1551,-4.1551,-4.1551,-4.1551,-4.1551,-4.1551,-4.0999,-4.1051,-4.1071,-4.1138,-4.1167,-4.1217,-4.1241,-4.1274,-4.1305,-4.1366,-4.1405,-4.143,-4.1468,-4.1519,-4.1561,-4.1571,-4.1587,-4.1592,-4.1602,-4.1567,-4.1563,-4.1559,-4.1548,-4.1595,-4.1595,-4.1636,-4.1637,-4.1637]}]]